GEFSSE_prec_meanprecacc_024.txt.gz
Total_Precipitation_Accumulation
0.00 0.00 0.01 0.01 0.01 0.01 0.01 0.02 0.02 0.03 0.03 0.03 0.04 0.03 0.03 0.02 0.02 0.02 0.03 0.03 0.04 0.06 0.09 0.11 0.13 0.16 0.17 0.21 0.28 0.33 0.33 0.33 0.28 0.21 0.18 0.18 0.19 0.16 0.23 0.24 0.25 0.38 0.25
0.00 0.00 0.02 0.02 0.01 0.01 0.01 0.02 0.02 0.02 0.03 0.03 0.03 0.03 0.02 0.02 0.02 0.02 0.02 0.02 0.02 0.03 0.06 0.10 0.13 0.15 0.17 0.19 0.25 0.32 0.33 0.33 0.34 0.30 0.28 0.27 0.26 0.23 0.21 0.19 0.25 0.34 0.24
0.00 0.00 0.02 0.02 0.02 0.02 0.02 0.02 0.03 0.04 0.03 0.02 0.05 0.04 0.04 0.02 0.01 0.01 0.02 0.02 0.01 0.02 0.03 0.08 0.14 0.15 0.16 0.23 0.26 0.28 0.32 0.35 0.38 0.33 0.34 0.44 0.31 0.29 0.29 0.26 0.22 0.22 0.23
0.00 0.00 0.01 0.02 0.05 0.07 0.04 0.03 0.05 0.05 0.03 0.03 0.05 0.05 0.05 0.02 0.01 0.01 0.01 0.02 0.03 0.03 0.03 0.05 0.12 0.16 0.17 0.19 0.21 0.22 0.23 0.29 0.35 0.24 0.27 0.48 0.42 0.29 0.36 0.36 0.22 0.20 0.20
0.01 0.01 0.04 0.06 0.13 0.16 0.10 0.09 0.12 0.08 0.06 0.06 0.05 0.05 0.06 0.04 0.05 0.03 0.01 0.02 0.03 0.04 0.04 0.04 0.07 0.12 0.17 0.18 0.19 0.18 0.19 0.30 0.26 0.18 0.26 0.35 0.33 0.30 0.35 0.40 0.28 0.19 0.16
0.02 0.04 0.08 0.12 0.20 0.22 0.12 0.13 0.20 0.13 0.11 0.07 0.04 0.05 0.06 0.04 0.05 0.01 0.01 0.04 0.03 0.03 0.03 0.03 0.05 0.09 0.15 0.19 0.19 0.20 0.23 0.20 0.12 0.20 0.26 0.35 0.33 0.32 0.31 0.28 0.25 0.20 0.16
0.02 0.04 0.09 0.17 0.18 0.19 0.16 0.20 0.29 0.23 0.17 0.08 0.04 0.06 0.06 0.05 0.04 0.02 0.03 0.03 0.03 0.03 0.02 0.02 0.02 0.04 0.08 0.12 0.15 0.17 0.17 0.12 0.19 0.22 0.23 0.36 0.35 0.29 0.24 0.24 0.28 0.21 0.16
0.02 0.03 0.09 0.12 0.13 0.16 0.20 0.25 0.33 0.33 0.22 0.09 0.04 0.06 0.05 0.04 0.03 0.03 0.04 0.03 0.03 0.01 0.01 0.01 0.01 0.01 0.01 0.04 0.06 0.09 0.11 0.11 0.16 0.13 0.15 0.27 0.25 0.23 0.19 0.19 0.24 0.22 0.23
0.04 0.03 0.08 0.09 0.08 0.13 0.21 0.22 0.33 0.44 0.27 0.11 0.05 0.06 0.07 0.05 0.03 0.03 0.02 0.02 0.01 0.01 0.00 0.00 0.01 0.00 0.00 0.01 0.03 0.06 0.08 0.08 0.06 0.06 0.08 0.19 0.20 0.19 0.24 0.22 0.20 0.24 0.28
0.03 0.02 0.02 0.03 0.06 0.12 0.14 0.21 0.29 0.56 0.47 0.15 0.08 0.06 0.07 0.04 0.03 0.03 0.01 0.00 0.01 0.01 0.00 0.00 0.00 0.00 0.00 0.01 0.04 0.06 0.05 0.03 0.02 0.01 0.03 0.09 0.13 0.11 0.14 0.16 0.17 0.18 0.23
0.00 0.01 0.01 0.01 0.02 0.06 0.11 0.20 0.31 0.45 0.48 0.22 0.10 0.07 0.05 0.05 0.07 0.04 0.00 0.00 0.01 0.00 0.00 0.00 0.00 0.00 0.00 0.01 0.03 0.02 0.01 0.01 0.01 0.01 0.01 0.03 0.03 0.03 0.04 0.04 0.05 0.06 0.10
0.00 0.00 0.00 0.01 0.02 0.02 0.05 0.16 0.19 0.21 0.25 0.15 0.13 0.06 0.06 0.16 0.14 0.04 0.01 0.00 0.01 0.00 0.00 0.00 0.00 0.00 0.00 0.00 0.00 0.00 0.00 0.00 0.01 0.02 0.01 0.01 0.00 0.00 0.00 0.00 0.00 0.00 0.01
0.00 0.00 0.00 0.00 0.00 0.01 0.07 0.14 0.16 0.23 0.28 0.29 0.23 0.09 0.09 0.16 0.08 0.01 0.00 0.01 0.01 0.00 0.00 0.00 0.00 0.00 0.00 0.00 0.00 0.00 0.00 0.00 0.02 0.01 0.02 0.01 0.00 0.00 0.00 0.00 0.00 0.00 0.00
0.00 0.00 0.00 0.00 0.00 0.00 0.04 0.11 0.16 0.25 0.32 0.29 0.16 0.05 0.04 0.07 0.04 0.01 0.00 0.01 0.01 0.01 0.00 0.00 0.00 0.00 0.00 0.00 0.00 0.00 0.00 0.00 0.01 0.01 0.02 0.02 0.01 0.01 0.01 0.01 0.00 0.00 0.00
0.01 0.00 0.00 0.00 0.00 0.00 0.02 0.05 0.10 0.26 0.32 0.31 0.23 0.06 0.07 0.05 0.02 0.01 0.00 0.00 0.00 0.01 0.00 0.00 0.00 0.00 0.00 0.01 0.01 0.00 0.00 0.00 0.00 0.01 0.03 0.03 0.04 0.05 0.03 0.04 0.04 0.01 0.01
0.03 0.02 0.01 0.01 0.01 0.00 0.00 0.01 0.06 0.10 0.14 0.22 0.16 0.04 0.08 0.07 0.03 0.01 0.00 0.00 0.00 0.00 0.01 0.00 0.00 0.00 0.01 0.01 0.01 0.00 0.00 0.00 0.00 0.00 0.03 0.03 0.05 0.09 0.08 0.11 0.10 0.05 0.04
0.09 0.07 0.05 0.05 0.04 0.02 0.01 0.01 0.03 0.05 0.09 0.11 0.10 0.03 0.05 0.08 0.05 0.02 0.02 0.01 0.02 0.02 0.02 0.01 0.00 0.00 0.00 0.01 0.00 0.00 0.00 0.00 0.00 0.00 0.01 0.02 0.04 0.10 0.17 0.22 0.22 0.18 0.13
0.15 0.12 0.10 0.10 0.08 0.06 0.04 0.03 0.01 0.01 0.06 0.12 0.15 0.07 0.05 0.10 0.10 0.06 0.04 0.06 0.05 0.03 0.03 0.02 0.00 0.00 0.00 0.00 0.00 0.00 0.00 0.00 0.00 0.00 0.00 0.00 0.01 0.05 0.12 0.19 0.29 0.36 0.31
0.24 0.19 0.16 0.13 0.10 0.09 0.09 0.09 0.07 0.05 0.08 0.11 0.13 0.10 0.17 0.27 0.25 0.17 0.15 0.14 0.11 0.09 0.05 0.03 0.02 0.01 0.00 0.00 0.00 0.00 0.00 0.00 0.00 0.00 0.00 0.00 0.00 0.00 0.01 0.04 0.11 0.14 0.22
0.24 0.23 0.21 0.20 0.18 0.13 0.13 0.18 0.19 0.15 0.12 0.12 0.13 0.24 0.51 0.60 0.48 0.41 0.36 0.24 0.16 0.16 0.16 0.13 0.08 0.05 0.03 0.01 0.00 0.00 0.00 0.00 0.00 0.00 0.00 0.00 0.00 0.00 0.00 0.00 0.02 0.02 0.08
0.14 0.13 0.15 0.19 0.23 0.20 0.15 0.18 0.24 0.26 0.25 0.24 0.26 0.26 0.42 0.54 0.50 0.52 0.51 0.42 0.29 0.23 0.25 0.27 0.26 0.20 0.12 0.04 0.05 0.04 0.02 0.00 0.00 0.00 0.00 0.00 0.00 0.00 0.00 0.00 0.02 0.03 0.03
0.04 0.06 0.10 0.14 0.21 0.27 0.27 0.31 0.43 0.55 0.58 0.57 0.52 0.47 0.47 0.44 0.42 0.41 0.55 0.58 0.43 0.37 0.39 0.46 0.45 0.41 0.28 0.14 0.20 0.27 0.15 0.09 0.03 0.00 0.00 0.00 0.00 0.00 0.00 0.00 0.00 0.00 0.01
0.02 0.04 0.10 0.18 0.31 0.46 0.60 0.80 1.02 1.26 1.31 1.15 0.94 0.85 0.80 0.71 0.58 0.50 0.59 0.64 0.51 0.48 0.51 0.53 0.48 0.57 0.55 0.37 0.34 0.50 0.38 0.29 0.23 0.06 0.00 0.00 0.00 0.00 0.00 0.00 0.00 0.00 0.00
0.09 0.15 0.26 0.37 0.53 0.67 0.86 1.06 1.29 1.50 1.64 1.64 1.58 1.46 1.29 1.09 0.83 0.62 0.55 0.53 0.51 0.50 0.46 0.37 0.41 0.60 0.78 0.69 0.57 0.49 0.41 0.32 0.28 0.18 0.06 0.01 0.00 0.01 0.00 0.00 0.00 0.00 0.01
0.24 0.36 0.47 0.67 0.81 0.90 0.94 1.03 1.24 1.34 1.39 1.50 1.61 1.61 1.52 1.30 1.05 0.79 0.60 0.52 0.50 0.48 0.42 0.40 0.49 0.63 0.77 0.89 0.83 0.61 0.44 0.37 0.25 0.22 0.18 0.09 0.03 0.01 0.01 0.00 0.00 0.00 0.00
0.49 0.71 0.83 0.92 0.97 0.92 0.88 0.89 1.02 1.18 1.26 1.35 1.44 1.46 1.36 1.18 1.07 0.95 0.78 0.63 0.49 0.40 0.34 0.39 0.54 0.56 0.59 0.68 0.66 0.51 0.40 0.34 0.35 0.32 0.25 0.24 0.16 0.03 0.01 0.01 0.00 0.00 0.00

GEFSSE_prec_meanprecacc_030.txt.gz
Total_Precipitation_Accumulation
0.00 0.01 0.04 0.03 0.03 0.02 0.01 0.02 0.03 0.03 0.03 0.04 0.04 0.04 0.03 0.03 0.03 0.04 0.06 0.07 0.08 0.11 0.14 0.16 0.19 0.20 0.20 0.23 0.29 0.34 0.34 0.33 0.30 0.22 0.19 0.19 0.20 0.19 0.27 0.27 0.26 0.39 0.27
0.00 0.00 0.04 0.03 0.02 0.01 0.02 0.02 0.02 0.02 0.03 0.03 0.04 0.03 0.02 0.02 0.02 0.03 0.04 0.04 0.04 0.06 0.10 0.14 0.17 0.19 0.20 0.20 0.27 0.34 0.35 0.35 0.35 0.31 0.28 0.28 0.27 0.25 0.23 0.21 0.27 0.36 0.27
0.00 0.00 0.03 0.03 0.03 0.03 0.02 0.02 0.03 0.04 0.03 0.03 0.06 0.04 0.04 0.02 0.01 0.01 0.02 0.02 0.02 0.03 0.05 0.11 0.17 0.18 0.18 0.25 0.28 0.29 0.34 0.38 0.40 0.34 0.34 0.44 0.31 0.30 0.31 0.28 0.24 0.25 0.26
0.00 0.00 0.01 0.03 0.05 0.08 0.05 0.04 0.06 0.05 0.03 0.04 0.06 0.05 0.05 0.02 0.01 0.01 0.01 0.02 0.03 0.03 0.04 0.07 0.15 0.18 0.19 0.21 0.24 0.23 0.25 0.32 0.38 0.25 0.27 0.48 0.42 0.30 0.37 0.38 0.24 0.21 0.22
0.01 0.01 0.04 0.07 0.14 0.16 0.10 0.09 0.12 0.08 0.07 0.06 0.05 0.05 0.06 0.04 0.05 0.03 0.01 0.02 0.03 0.04 0.04 0.04 0.08 0.15 0.19 0.20 0.20 0.19 0.21 0.33 0.28 0.18 0.26 0.35 0.33 0.31 0.36 0.41 0.31 0.22 0.19
0.02 0.04 0.08 0.13 0.20 0.22 0.12 0.14 0.20 0.14 0.11 0.07 0.04 0.05 0.06 0.04 0.05 0.01 0.01 0.04 0.03 0.03 0.03 0.03 0.05 0.10 0.16 0.20 0.21 0.22 0.25 0.22 0.13 0.20 0.26 0.35 0.33 0.33 0.31 0.29 0.28 0.25 0.20
0.02 0.04 0.09 0.17 0.19 0.19 0.17 0.21 0.29 0.23 0.17 0.09 0.04 0.06 0.06 0.05 0.04 0.02 0.03 0.03 0.03 0.03 0.02 0.02 0.03 0.05 0.09 0.14 0.17 0.19 0.18 0.14 0.19 0.22 0.23 0.36 0.35 0.32 0.25 0.25 0.30 0.25 0.21
0.02 0.03 0.09 0.13 0.13 0.16 0.20 0.26 0.33 0.33 0.22 0.09 0.04 0.06 0.05 0.04 0.03 0.03 0.04 0.04 0.03 0.01 0.01 0.01 0.01 0.01 0.02 0.05 0.07 0.10 0.12 0.12 0.16 0.13 0.15 0.27 0.27 0.25 0.21 0.20 0.26 0.25 0.27
0.04 0.03 0.08 0.09 0.08 0.13 0.21 0.22 0.33 0.45 0.28 0.12 0.05 0.06 0.07 0.05 0.03 0.03 0.02 0.02 0.01 0.01 0.00 0.00 0.01 0.00 0.01 0.01 0.03 0.06 0.09 0.09 0.07 0.06 0.08 0.19 0.21 0.20 0.25 0.23 0.22 0.29 0.32
0.03 0.02 0.02 0.03 0.06 0.12 0.15 0.21 0.30 0.57 0.48 0.16 0.08 0.07 0.07 0.05 0.04 0.03 0.01 0.00 0.01 0.01 0.00 0.00 0.00 0.00 0.00 0.01 0.04 0.07 0.07 0.05 0.02 0.02 0.03 0.09 0.14 0.11 0.15 0.18 0.19 0.22 0.26
0.01 0.01 0.01 0.02 0.02 0.06 0.12 0.20 0.31 0.47 0.50 0.24 0.11 0.07 0.06 0.05 0.08 0.04 0.01 0.00 0.01 0.00 0.00 0.00 0.00 0.00 0.00 0.01 0.03 0.03 0.02 0.01 0.01 0.01 0.01 0.03 0.04 0.03 0.04 0.05 0.06 0.08 0.12
0.01 0.01 0.01 0.01 0.02 0.02 0.05 0.16 0.19 0.21 0.26 0.16 0.13 0.06 0.06 0.16 0.14 0.04 0.01 0.00 0.01 0.00 0.00 0.00 0.00 0.00 0.00 0.00 0.00 0.01 0.00 0.00 0.01 0.02 0.01 0.01 0.01 0.00 0.00 0.00 0.00 0.01 0.02
0.07 0.05 0.03 0.02 0.02 0.02 0.08 0.14 0.17 0.23 0.28 0.30 0.23 0.09 0.09 0.16 0.08 0.01 0.00 0.01 0.01 0.00 0.00 0.00 0.00 0.00 0.00 0.00 0.00 0.00 0.00 0.00 0.02 0.01 0.02 0.01 0.00 0.00 0.00 0.00 0.00 0.00 0.00
0.15 0.15 0.13 0.06 0.03 0.03 0.05 0.12 0.17 0.25 0.32 0.29 0.16 0.05 0.04 0.07 0.04 0.01 0.00 0.01 0.01 0.01 0.00 0.00 0.00 0.00 0.00 0.00 0.00 0.00 0.00 0.00 0.01 0.01 0.02 0.02 0.01 0.01 0.01 0.01 0.00 0.00 0.00
0.18 0.21 0.23 0.19 0.11 0.09 0.08 0.10 0.11 0.27 0.32 0.31 0.23 0.06 0.07 0.05 0.02 0.01 0.00 0.00 0.00 0.01 0.00 0.00 0.00 0.00 0.00 0.01 0.01 0.00 0.00 0.00 0.00 0.01 0.03 0.03 0.04 0.05 0.03 0.04 0.04 0.01 0.01
0.18 0.22 0.27 0.30 0.26 0.23 0.20 0.17 0.16 0.15 0.17 0.23 0.16 0.04 0.08 0.08 0.03 0.01 0.02 0.01 0.00 0.00 0.01 0.00 0.00 0.00 0.01 0.01 0.01 0.00 0.00 0.00 0.00 0.00 0.03 0.03 0.05 0.09 0.08 0.11 0.10 0.05 0.04
0.26 0.27 0.32 0.39 0.42 0.38 0.33 0.33 0.27 0.23 0.22 0.16 0.12 0.04 0.05 0.08 0.06 0.05 0.06 0.04 0.03 0.03 0.02 0.01 0.00 0.00 0.00 0.01 0.00 0.00 0.00 0.00 0.00 0.00 0.01 0.02 0.04 0.10 0.17 0.22 0.22 0.18 0.13
0.31 0.30 0.33 0.36 0.38 0.41 0.40 0.40 0.39 0.33 0.30 0.27 0.23 0.13 0.08 0.11 0.14 0.10 0.10 0.11 0.10 0.05 0.03 0.02 0.00 0.00 0.00 0.00 0.00 0.00 0.00 0.00 0.00 0.00 0.00 0.00 0.01 0.05 0.12 0.19 0.29 0.36 0.31
0.34 0.30 0.29 0.30 0.29 0.30 0.34 0.42 0.47 0.46 0.42 0.40 0.35 0.24 0.26 0.33 0.31 0.23 0.23 0.24 0.24 0.17 0.09 0.05 0.02 0.01 0.00 0.00 0.00 0.00 0.00 0.00 0.00 0.00 0.00 0.00 0.00 0.00 0.01 0.04 0.11 0.14 0.22
0.29 0.30 0.29 0.31 0.29 0.25 0.29 0.40 0.46 0.45 0.43 0.46 0.46 0.49 0.72 0.76 0.60 0.52 0.51 0.42 0.34 0.28 0.22 0.16 0.09 0.05 0.03 0.01 0.00 0.00 0.00 0.00 0.00 0.00 0.00 0.00 0.00 0.00 0.00 0.00 0.02 0.02 0.08
0.15 0.14 0.18 0.24 0.30 0.27 0.23 0.29 0.38 0.44 0.51 0.56 0.65 0.67 0.82 0.85 0.75 0.73 0.72 0.65 0.50 0.39 0.37 0.35 0.30 0.22 0.13 0.05 0.05 0.05 0.02 0.00 0.00 0.00 0.00 0.00 0.00 0.00 0.00 0.00 0.02 0.03 0.03
0.04 0.06 0.10 0.15 0.23 0.30 0.32 0.36 0.49 0.65 0.75 0.80 0.88 0.89 0.93 0.87 0.80 0.75 0.85 0.87 0.71 0.62 0.59 0.61 0.54 0.45 0.30 0.16 0.22 0.29 0.16 0.10 0.03 0.01 0.00 0.00 0.00 0.00 0.00 0.00 0.00 0.00 0.01
0.02 0.05 0.10 0.18 0.31 0.47 0.62 0.82 1.05 1.32 1.41 1.29 1.14 1.17 1.23 1.22 1.11 0.99 1.01 1.03 0.87 0.78 0.77 0.75 0.66 0.69 0.64 0.45 0.41 0.54 0.40 0.30 0.23 0.06 0.01 0.00 0.00 0.00 0.00 0.00 0.00 0.00 0.00
0.09 0.15 0.26 0.37 0.53 0.67 0.86 1.07 1.31 1.53 1.70 1.70 1.71 1.73 1.67 1.56 1.39 1.18 1.07 1.00 0.95 0.90 0.79 0.66 0.67 0.83 0.97 0.85 0.70 0.60 0.47 0.36 0.29 0.19 0.07 0.01 0.00 0.01 0.00 0.00 0.00 0.00 0.01
0.25 0.36 0.47 0.68 0.81 0.90 0.94 1.03 1.24 1.35 1.40 1.53 1.68 1.75 1.71 1.58 1.42 1.24 1.08 0.99 0.94 0.93 0.86 0.81 0.84 0.94 1.05 1.13 1.04 0.78 0.58 0.47 0.31 0.25 0.18 0.09 0.03 0.01 0.01 0.00 0.00 0.00 0.00
0.49 0.71 0.84 0.92 0.97 0.93 0.88 0.89 1.03 1.19 1.27 1.36 1.47 1.52 1.43 1.29 1.25 1.21 1.12 0.99 0.87 0.81 0.77 0.82 0.94 0.94 0.97 1.01 0.95 0.75 0.59 0.49 0.47 0.42 0.30 0.26 0.17 0.03 0.01 0.01 0.00 0.00 0.00

GEFSSE_prec_meanprecacc_036.txt.gz
Total_Precipitation_Accumulation
0.00 0.01 0.05 0.06 0.05 0.04 0.04 0.05 0.05 0.06 0.07 0.07 0.08 0.07 0.06 0.05 0.05 0.07 0.08 0.09 0.10 0.13 0.18 0.21 0.24 0.25 0.23 0.25 0.31 0.36 0.36 0.35 0.31 0.23 0.20 0.19 0.20 0.19 0.27 0.28 0.28 0.42 0.29
0.00 0.00 0.05 0.05 0.04 0.03 0.03 0.04 0.04 0.04 0.06 0.06 0.06 0.06 0.05 0.04 0.04 0.05 0.07 0.06 0.06 0.09 0.14 0.19 0.24 0.25 0.25 0.26 0.33 0.41 0.40 0.38 0.37 0.33 0.30 0.29 0.28 0.25 0.24 0.22 0.29 0.39 0.30
0.00 0.00 0.03 0.04 0.04 0.04 0.03 0.03 0.04 0.06 0.05 0.04 0.07 0.05 0.06 0.04 0.03 0.04 0.04 0.04 0.05 0.06 0.08 0.15 0.23 0.25 0.25 0.33 0.39 0.39 0.42 0.42 0.42 0.35 0.35 0.46 0.33 0.31 0.33 0.32 0.27 0.27 0.27
0.00 0.00 0.01 0.03 0.06 0.08 0.06 0.05 0.07 0.07 0.06 0.05 0.07 0.06 0.07 0.04 0.04 0.04 0.03 0.03 0.04 0.05 0.06 0.10 0.19 0.25 0.27 0.29 0.33 0.34 0.35 0.39 0.41 0.26 0.28 0.50 0.45 0.31 0.40 0.43 0.30 0.26 0.25
0.01 0.01 0.04 0.07 0.14 0.17 0.11 0.10 0.13 0.10 0.09 0.08 0.07 0.07 0.08 0.06 0.07 0.04 0.02 0.03 0.04 0.06 0.07 0.08 0.14 0.22 0.26 0.27 0.28 0.28 0.30 0.40 0.31 0.19 0.27 0.38 0.39 0.35 0.40 0.47 0.35 0.28 0.26
0.02 0.04 0.09 0.13 0.20 0.22 0.13 0.14 0.21 0.15 0.13 0.08 0.05 0.06 0.07 0.05 0.06 0.02 0.02 0.04 0.04 0.04 0.05 0.07 0.11 0.17 0.22 0.26 0.27 0.31 0.37 0.31 0.15 0.21 0.27 0.38 0.38 0.38 0.36 0.36 0.35 0.32 0.27
0.02 0.04 0.09 0.17 0.19 0.20 0.17 0.21 0.30 0.24 0.18 0.10 0.05 0.06 0.06 0.05 0.05 0.03 0.04 0.03 0.03 0.03 0.03 0.04 0.06 0.10 0.13 0.18 0.22 0.27 0.28 0.21 0.21 0.23 0.24 0.38 0.39 0.36 0.30 0.31 0.38 0.33 0.28
0.02 0.03 0.09 0.13 0.13 0.17 0.20 0.26 0.34 0.34 0.23 0.10 0.05 0.06 0.05 0.05 0.04 0.04 0.05 0.04 0.03 0.01 0.01 0.02 0.04 0.05 0.05 0.08 0.11 0.15 0.20 0.19 0.18 0.13 0.16 0.29 0.30 0.30 0.26 0.26 0.32 0.31 0.34
0.04 0.03 0.08 0.09 0.09 0.13 0.22 0.23 0.35 0.47 0.30 0.13 0.06 0.07 0.07 0.05 0.04 0.04 0.03 0.02 0.01 0.01 0.00 0.01 0.02 0.03 0.03 0.03 0.06 0.11 0.16 0.15 0.11 0.07 0.08 0.20 0.25 0.24 0.29 0.26 0.27 0.33 0.37
0.03 0.02 0.02 0.03 0.07 0.13 0.16 0.23 0.34 0.63 0.54 0.21 0.11 0.08 0.08 0.05 0.04 0.04 0.01 0.01 0.01 0.01 0.00 0.00 0.00 0.01 0.01 0.02 0.06 0.11 0.12 0.09 0.06 0.02 0.03 0.10 0.17 0.13 0.15 0.18 0.20 0.23 0.29
0.01 0.01 0.01 0.02 0.03 0.07 0.13 0.22 0.37 0.58 0.62 0.35 0.18 0.10 0.07 0.06 0.10 0.07 0.02 0.01 0.01 0.00 0.00 0.00 0.00 0.00 0.01 0.02 0.05 0.05 0.04 0.05 0.05 0.02 0.01 0.04 0.05 0.04 0.04 0.05 0.07 0.09 0.14
0.09 0.05 0.03 0.03 0.04 0.04 0.06 0.18 0.26 0.32 0.41 0.28 0.27 0.16 0.13 0.21 0.17 0.06 0.02 0.01 0.01 0.00 0.00 0.00 0.00 0.00 0.00 0.00 0.01 0.01 0.02 0.03 0.04 0.03 0.02 0.02 0.01 0.00 0.00 0.01 0.01 0.02 0.03
0.24 0.19 0.11 0.07 0.05 0.06 0.13 0.19 0.24 0.33 0.39 0.41 0.36 0.21 0.23 0.25 0.12 0.02 0.02 0.02 0.02 0.01 0.00 0.00 0.00 0.00 0.00 0.00 0.00 0.00 0.00 0.00 0.02 0.02 0.02 0.01 0.00 0.00 0.00 0.00 0.00 0.00 0.00
0.33 0.37 0.29 0.17 0.14 0.11 0.14 0.20 0.25 0.34 0.40 0.37 0.25 0.14 0.16 0.18 0.10 0.03 0.02 0.02 0.02 0.02 0.01 0.00 0.00 0.00 0.00 0.00 0.00 0.00 0.00 0.00 0.01 0.01 0.03 0.02 0.01 0.01 0.01 0.01 0.01 0.00 0.00
0.37 0.43 0.44 0.35 0.27 0.24 0.23 0.24 0.21 0.38 0.43 0.41 0.33 0.13 0.16 0.14 0.10 0.06 0.02 0.01 0.01 0.01 0.01 0.00 0.00 0.00 0.00 0.01 0.01 0.00 0.00 0.00 0.00 0.01 0.03 0.03 0.04 0.05 0.03 0.04 0.04 0.01 0.01
0.35 0.40 0.44 0.48 0.46 0.40 0.37 0.35 0.32 0.32 0.36 0.40 0.28 0.13 0.17 0.16 0.10 0.09 0.05 0.03 0.02 0.01 0.01 0.00 0.00 0.00 0.01 0.01 0.01 0.00 0.00 0.00 0.00 0.00 0.03 0.03 0.05 0.09 0.08 0.11 0.10 0.06 0.05
0.37 0.40 0.43 0.50 0.57 0.57 0.56 0.61 0.51 0.45 0.47 0.40 0.30 0.21 0.18 0.18 0.14 0.13 0.11 0.07 0.05 0.04 0.03 0.01 0.00 0.00 0.00 0.01 0.00 0.00 0.00 0.00 0.00 0.00 0.01 0.02 0.04 0.10 0.17 0.22 0.23 0.19 0.14
0.36 0.36 0.38 0.42 0.46 0.52 0.58 0.65 0.68 0.65 0.64 0.56 0.50 0.38 0.27 0.27 0.27 0.22 0.17 0.16 0.14 0.10 0.07 0.04 0.01 0.00 0.00 0.00 0.00 0.00 0.00 0.00 0.00 0.00 0.00 0.00 0.01 0.05 0.12 0.19 0.29 0.36 0.32
0.35 0.32 0.30 0.32 0.32 0.35 0.42 0.52 0.63 0.67 0.72 0.73 0.68 0.56 0.52 0.52 0.46 0.38 0.36 0.37 0.37 0.30 0.18 0.09 0.04 0.01 0.01 0.01 0.00 0.00 0.00 0.00 0.00 0.00 0.00 0.00 0.00 0.00 0.01 0.04 0.11 0.14 0.22
0.29 0.30 0.30 0.31 0.30 0.26 0.30 0.43 0.52 0.56 0.61 0.74 0.76 0.77 0.99 1.03 0.83 0.70 0.67 0.59 0.52 0.45 0.37 0.28 0.17 0.09 0.04 0.02 0.00 0.00 0.00 0.00 0.00 0.00 0.00 0.00 0.00 0.00 0.00 0.00 0.02 0.02 0.08
0.15 0.14 0.18 0.24 0.30 0.28 0.24 0.29 0.40 0.47 0.58 0.68 0.83 0.88 1.06 1.12 1.03 0.99 0.92 0.83 0.69 0.58 0.55 0.53 0.45 0.30 0.17 0.07 0.07 0.06 0.03 0.01 0.00 0.00 0.00 0.00 0.00 0.00 0.00 0.00 0.02 0.03 0.03
0.05 0.06 0.10 0.15 0.23 0.30 0.32 0.37 0.50 0.66 0.76 0.83 0.95 0.99 1.08 1.03 1.00 0.93 1.02 1.07 0.93 0.86 0.83 0.84 0.75 0.61 0.40 0.21 0.28 0.36 0.22 0.13 0.04 0.01 0.00 0.00 0.00 0.00 0.00 0.00 0.00 0.00 0.01
0.02 0.05 0.10 0.18 0.31 0.47 0.62 0.82 1.06 1.32 1.42 1.30 1.16 1.21 1.32 1.34 1.26 1.16 1.18 1.26 1.11 1.01 0.96 0.94 0.86 0.92 0.83 0.57 0.48 0.63 0.48 0.36 0.29 0.07 0.01 0.00 0.00 0.00 0.00 0.00 0.00 0.00 0.00
0.09 0.16 0.26 0.38 0.53 0.67 0.86 1.07 1.32 1.54 1.71 1.72 1.73 1.76 1.72 1.63 1.49 1.33 1.25 1.21 1.16 1.10 0.98 0.84 0.88 1.06 1.23 1.08 0.85 0.70 0.55 0.42 0.37 0.24 0.08 0.01 0.00 0.01 0.00 0.00 0.00 0.00 0.01
0.26 0.37 0.48 0.69 0.83 0.93 0.96 1.05 1.26 1.37 1.42 1.55 1.70 1.77 1.74 1.62 1.48 1.34 1.21 1.12 1.10 1.09 1.03 0.98 1.02 1.13 1.27 1.37 1.25 0.95 0.71 0.56 0.37 0.32 0.26 0.14 0.05 0.01 0.01 0.00 0.00 0.00 0.00
0.53 0.76 0.89 0.98 1.04 0.99 0.95 0.95 1.08 1.22 1.30 1.39 1.51 1.56 1.47 1.33 1.29 1.26 1.20 1.07 0.97 0.92 0.91 0.97 1.11 1.12 1.16 1.24 1.20 0.98 0.79 0.66 0.60 0.53 0.41 0.35 0.25 0.07 0.01 0.01 0.00 0.00 0.00

GEFSSE_prec_meanprecacc_042.txt.gz
Total_Precipitation_Accumulation
0.00 0.01 0.05 0.06 0.06 0.05 0.05 0.06 0.07 0.09 0.09 0.10 0.10 0.10 0.08 0.07 0.07 0.08 0.10 0.10 0.11 0.14 0.19 0.22 0.24 0.25 0.24 0.27 0.33 0.38 0.39 0.37 0.33 0.25 0.21 0.21 0.21 0.19 0.27 0.30 0.38 0.57 0.33
0.00 0.00 0.05 0.05 0.04 0.04 0.04 0.04 0.05 0.06 0.07 0.07 0.08 0.07 0.06 0.05 0.05 0.07 0.08 0.07 0.07 0.10 0.15 0.20 0.25 0.27 0.29 0.30 0.39 0.46 0.45 0.42 0.40 0.37 0.35 0.35 0.30 0.26 0.24 0.26 0.42 0.51 0.33
0.00 0.00 0.03 0.05 0.05 0.05 0.04 0.03 0.05 0.07 0.06 0.05 0.08 0.06 0.06 0.05 0.04 0.05 0.05 0.06 0.06 0.07 0.10 0.16 0.26 0.30 0.31 0.39 0.46 0.48 0.49 0.48 0.45 0.41 0.55 0.69 0.41 0.33 0.35 0.35 0.31 0.30 0.30
0.00 0.00 0.01 0.03 0.07 0.09 0.06 0.05 0.07 0.08 0.06 0.06 0.08 0.07 0.07 0.05 0.04 0.04 0.04 0.04 0.05 0.06 0.07 0.12 0.23 0.31 0.33 0.35 0.41 0.42 0.41 0.44 0.46 0.37 0.54 0.73 0.57 0.34 0.42 0.46 0.33 0.29 0.28
0.01 0.01 0.04 0.07 0.14 0.17 0.11 0.10 0.14 0.11 0.09 0.08 0.07 0.07 0.09 0.06 0.07 0.04 0.02 0.04 0.04 0.06 0.07 0.09 0.16 0.26 0.31 0.34 0.35 0.35 0.36 0.46 0.37 0.32 0.45 0.56 0.53 0.39 0.42 0.51 0.40 0.31 0.29
0.02 0.04 0.09 0.13 0.20 0.23 0.13 0.15 0.22 0.16 0.13 0.09 0.05 0.06 0.08 0.06 0.06 0.02 0.02 0.04 0.04 0.04 0.06 0.07 0.13 0.19 0.25 0.31 0.33 0.39 0.44 0.37 0.28 0.37 0.40 0.53 0.50 0.40 0.37 0.38 0.40 0.38 0.33
0.02 0.05 0.10 0.17 0.19 0.20 0.18 0.23 0.31 0.25 0.19 0.10 0.05 0.06 0.06 0.05 0.05 0.03 0.04 0.03 0.03 0.03 0.03 0.04 0.07 0.11 0.16 0.21 0.27 0.33 0.34 0.27 0.36 0.37 0.35 0.50 0.44 0.36 0.30 0.33 0.42 0.39 0.36
0.02 0.03 0.10 0.14 0.14 0.18 0.21 0.28 0.36 0.36 0.25 0.12 0.06 0.07 0.05 0.05 0.04 0.04 0.05 0.04 0.03 0.01 0.01 0.02 0.04 0.06 0.07 0.10 0.15 0.19 0.24 0.24 0.29 0.22 0.25 0.38 0.32 0.30 0.27 0.27 0.34 0.36 0.41
0.04 0.04 0.09 0.11 0.10 0.15 0.24 0.26 0.39 0.50 0.34 0.17 0.10 0.10 0.08 0.05 0.04 0.04 0.03 0.02 0.01 0.01 0.00 0.01 0.02 0.03 0.04 0.04 0.08 0.14 0.19 0.19 0.17 0.11 0.15 0.26 0.25 0.24 0.30 0.28 0.29 0.37 0.41
0.04 0.02 0.04 0.08 0.12 0.20 0.26 0.35 0.42 0.70 0.61 0.29 0.18 0.12 0.10 0.05 0.04 0.04 0.02 0.01 0.01 0.01 0.00 0.00 0.00 0.01 0.02 0.03 0.08 0.13 0.13 0.11 0.09 0.04 0.06 0.11 0.17 0.13 0.16 0.19 0.22 0.25 0.31
0.02 0.02 0.03 0.06 0.08 0.13 0.20 0.37 0.51 0.71 0.77 0.47 0.28 0.16 0.10 0.08 0.14 0.12 0.05 0.02 0.01 0.00 0.00 0.00 0.01 0.01 0.01 0.03 0.06 0.06 0.05 0.07 0.07 0.05 0.05 0.05 0.05 0.04 0.04 0.05 0.07 0.09 0.14
0.14 0.08 0.06 0.06 0.07 0.08 0.10 0.26 0.43 0.51 0.70 0.49 0.51 0.40 0.27 0.33 0.34 0.19 0.12 0.05 0.02 0.00 0.00 0.00 0.00 0.01 0.00 0.01 0.01 0.02 0.03 0.04 0.05 0.05 0.03 0.02 0.01 0.00 0.00 0.01 0.01 0.02 0.03
0.31 0.26 0.17 0.13 0.11 0.13 0.21 0.29 0.41 0.52 0.63 0.66 0.69 0.63 0.64 0.58 0.33 0.14 0.17 0.13 0.04 0.01 0.00 0.00 0.00 0.00 0.00 0.00 0.01 0.00 0.01 0.02 0.04 0.03 0.03 0.02 0.00 0.00 0.00 0.00 0.00 0.00 0.01
0.38 0.44 0.36 0.24 0.21 0.20 0.25 0.34 0.44 0.54 0.62 0.63 0.48 0.44 0.53 0.54 0.34 0.17 0.19 0.18 0.11 0.06 0.02 0.01 0.00 0.00 0.00 0.00 0.00 0.00 0.00 0.01 0.02 0.02 0.04 0.02 0.01 0.01 0.01 0.01 0.01 0.00 0.00
0.43 0.50 0.52 0.42 0.33 0.32 0.34 0.38 0.37 0.58 0.70 0.77 0.62 0.37 0.46 0.46 0.35 0.24 0.13 0.12 0.09 0.06 0.02 0.01 0.00 0.00 0.00 0.01 0.01 0.00 0.00 0.00 0.00 0.01 0.03 0.03 0.04 0.05 0.03 0.04 0.04 0.01 0.01
0.39 0.45 0.50 0.53 0.51 0.47 0.45 0.45 0.42 0.44 0.51 0.57 0.44 0.28 0.40 0.45 0.35 0.31 0.18 0.13 0.09 0.05 0.03 0.01 0.00 0.00 0.01 0.01 0.01 0.00 0.00 0.00 0.00 0.00 0.03 0.03 0.05 0.09 0.09 0.11 0.10 0.07 0.06
0.39 0.41 0.46 0.53 0.60 0.61 0.61 0.69 0.61 0.55 0.58 0.54 0.45 0.36 0.37 0.42 0.38 0.37 0.29 0.20 0.14 0.10 0.07 0.02 0.00 0.00 0.01 0.01 0.00 0.00 0.00 0.00 0.00 0.00 0.01 0.02 0.04 0.10 0.17 0.22 0.23 0.20 0.15
0.37 0.37 0.39 0.43 0.48 0.53 0.60 0.67 0.72 0.71 0.73 0.67 0.65 0.53 0.44 0.50 0.54 0.52 0.43 0.31 0.24 0.24 0.19 0.10 0.02 0.01 0.00 0.00 0.00 0.00 0.00 0.00 0.00 0.00 0.00 0.00 0.01 0.05 0.12 0.19 0.30 0.36 0.32
0.35 0.32 0.31 0.32 0.32 0.35 0.42 0.53 0.65 0.70 0.77 0.82 0.81 0.74 0.69 0.67 0.65 0.65 0.64 0.57 0.52 0.46 0.34 0.20 0.09 0.03 0.01 0.01 0.00 0.00 0.00 0.00 0.00 0.00 0.00 0.00 0.00 0.00 0.01 0.04 0.11 0.14 0.22
0.29 0.30 0.30 0.31 0.30 0.26 0.30 0.43 0.53 0.58 0.64 0.78 0.84 0.88 1.13 1.19 0.96 0.85 0.85 0.77 0.71 0.66 0.56 0.42 0.28 0.15 0.07 0.04 0.01 0.01 0.01 0.00 0.00 0.00 0.00 0.00 0.00 0.00 0.00 0.00 0.02 0.02 0.08
0.15 0.14 0.18 0.24 0.30 0.28 0.24 0.30 0.41 0.49 0.60 0.71 0.87 0.94 1.15 1.21 1.12 1.09 1.05 0.98 0.87 0.80 0.75 0.71 0.63 0.45 0.26 0.11 0.11 0.11 0.06 0.02 0.01 0.00 0.00 0.00 0.00 0.00 0.00 0.00 0.02 0.03 0.03
0.05 0.07 0.10 0.15 0.23 0.31 0.33 0.37 0.50 0.67 0.78 0.85 0.98 1.04 1.15 1.13 1.09 1.01 1.12 1.19 1.09 1.05 1.04 1.04 0.98 0.84 0.56 0.30 0.38 0.51 0.35 0.24 0.09 0.02 0.01 0.01 0.00 0.00 0.00 0.01 0.01 0.01 0.01
0.03 0.05 0.10 0.19 0.32 0.48 0.64 0.84 1.08 1.35 1.45 1.34 1.20 1.26 1.38 1.43 1.36 1.26 1.30 1.39 1.27 1.23 1.21 1.17 1.08 1.15 1.05 0.73 0.60 0.76 0.62 0.51 0.45 0.14 0.03 0.02 0.02 0.01 0.01 0.01 0.01 0.01 0.01
0.11 0.17 0.28 0.40 0.56 0.72 0.92 1.14 1.38 1.61 1.76 1.78 1.80 1.82 1.78 1.71 1.57 1.44 1.40 1.41 1.38 1.35 1.24 1.13 1.13 1.28 1.47 1.29 1.02 0.81 0.64 0.52 0.53 0.42 0.20 0.08 0.04 0.02 0.01 0.01 0.01 0.01 0.01
0.28 0.41 0.52 0.75 0.92 1.05 1.10 1.20 1.41 1.52 1.58 1.68 1.82 1.86 1.82 1.70 1.57 1.43 1.35 1.32 1.34 1.35 1.30 1.30 1.34 1.42 1.52 1.61 1.42 1.08 0.82 0.67 0.47 0.45 0.44 0.29 0.15 0.07 0.04 0.03 0.02 0.01 0.01
0.57 0.81 0.95 1.06 1.16 1.14 1.12 1.13 1.26 1.40 1.48 1.54 1.65 1.70 1.61 1.45 1.39 1.36 1.32 1.24 1.16 1.15 1.17 1.27 1.43 1.43 1.45 1.52 1.43 1.13 0.91 0.77 0.69 0.63 0.54 0.49 0.41 0.20 0.11 0.08 0.05 0.03 0.02

GEFSSE_prec_meanprecacc_048.txt.gz
Total_Precipitation_Accumulation
0.01 0.01 0.06 0.06 0.06 0.05 0.05 0.06 0.07 0.09 0.10 0.11 0.11 0.10 0.08 0.07 0.07 0.08 0.10 0.10 0.11 0.14 0.19 0.22 0.24 0.25 0.25 0.27 0.34 0.40 0.41 0.40 0.35 0.27 0.24 0.23 0.23 0.22 0.31 0.37 0.46 0.61 0.38
0.00 0.00 0.05 0.05 0.05 0.04 0.04 0.05 0.05 0.06 0.08 0.08 0.08 0.07 0.06 0.05 0.05 0.07 0.08 0.07 0.07 0.10 0.15 0.20 0.25 0.27 0.29 0.31 0.40 0.47 0.47 0.43 0.43 0.40 0.39 0.38 0.33 0.30 0.28 0.32 0.48 0.55 0.38
0.00 0.00 0.03 0.05 0.05 0.05 0.04 0.03 0.05 0.07 0.06 0.05 0.08 0.06 0.07 0.05 0.04 0.05 0.05 0.06 0.06 0.07 0.10 0.16 0.26 0.31 0.31 0.40 0.48 0.49 0.50 0.49 0.47 0.44 0.60 0.72 0.43 0.36 0.38 0.38 0.34 0.33 0.34
0.00 0.00 0.01 0.03 0.07 0.09 0.06 0.05 0.07 0.08 0.06 0.06 0.08 0.07 0.07 0.05 0.04 0.04 0.04 0.04 0.05 0.06 0.07 0.12 0.23 0.31 0.34 0.36 0.41 0.42 0.42 0.46 0.49 0.42 0.59 0.78 0.60 0.39 0.46 0.49 0.37 0.31 0.31
0.01 0.01 0.04 0.07 0.14 0.17 0.11 0.11 0.14 0.11 0.09 0.08 0.07 0.07 0.09 0.06 0.07 0.04 0.02 0.04 0.04 0.06 0.07 0.09 0.16 0.26 0.32 0.34 0.36 0.35 0.37 0.49 0.42 0.38 0.49 0.59 0.56 0.45 0.46 0.54 0.43 0.34 0.34
0.03 0.05 0.09 0.13 0.20 0.23 0.13 0.15 0.22 0.16 0.13 0.09 0.05 0.06 0.08 0.06 0.06 0.02 0.02 0.05 0.04 0.04 0.06 0.07 0.13 0.20 0.26 0.32 0.34 0.40 0.46 0.43 0.36 0.43 0.46 0.57 0.53 0.45 0.40 0.40 0.42 0.40 0.39
0.05 0.06 0.10 0.18 0.20 0.21 0.18 0.23 0.32 0.25 0.19 0.10 0.06 0.06 0.06 0.05 0.05 0.03 0.04 0.03 0.03 0.03 0.03 0.04 0.07 0.11 0.16 0.22 0.28 0.34 0.35 0.33 0.50 0.47 0.42 0.54 0.46 0.39 0.32 0.33 0.43 0.41 0.40
0.10 0.09 0.14 0.19 0.18 0.20 0.22 0.28 0.36 0.36 0.25 0.12 0.06 0.07 0.05 0.05 0.04 0.04 0.05 0.04 0.03 0.01 0.01 0.02 0.04 0.06 0.07 0.10 0.15 0.21 0.26 0.29 0.42 0.36 0.34 0.42 0.35 0.32 0.27 0.28 0.34 0.38 0.44
0.26 0.22 0.25 0.24 0.23 0.26 0.32 0.31 0.43 0.53 0.36 0.18 0.11 0.10 0.08 0.05 0.04 0.04 0.03 0.02 0.01 0.01 0.00 0.01 0.02 0.03 0.04 0.05 0.09 0.15 0.21 0.22 0.24 0.25 0.23 0.29 0.28 0.26 0.30 0.29 0.30 0.39 0.42
0.28 0.28 0.29 0.32 0.34 0.39 0.43 0.51 0.57 0.81 0.69 0.33 0.20 0.14 0.11 0.06 0.05 0.04 0.02 0.01 0.01 0.01 0.00 0.00 0.00 0.01 0.02 0.04 0.08 0.14 0.15 0.14 0.18 0.14 0.11 0.14 0.21 0.15 0.16 0.20 0.22 0.26 0.32
0.21 0.24 0.29 0.34 0.36 0.38 0.42 0.57 0.72 0.89 0.91 0.58 0.36 0.22 0.13 0.10 0.16 0.13 0.05 0.02 0.01 0.00 0.00 0.00 0.01 0.01 0.02 0.03 0.06 0.07 0.06 0.09 0.18 0.13 0.09 0.10 0.09 0.05 0.04 0.05 0.07 0.09 0.15
0.34 0.30 0.31 0.33 0.35 0.35 0.34 0.52 0.68 0.70 0.83 0.59 0.60 0.49 0.34 0.37 0.37 0.21 0.13 0.09 0.05 0.01 0.00 0.00 0.00 0.01 0.01 0.01 0.01 0.02 0.04 0.07 0.15 0.12 0.07 0.11 0.06 0.02 0.01 0.01 0.01 0.02 0.03
0.46 0.42 0.34 0.34 0.35 0.37 0.44 0.56 0.71 0.78 0.82 0.81 0.79 0.72 0.72 0.65 0.38 0.20 0.23 0.20 0.11 0.05 0.01 0.00 0.00 0.00 0.00 0.00 0.01 0.01 0.02 0.05 0.11 0.09 0.07 0.09 0.06 0.02 0.00 0.00 0.00 0.00 0.01
0.46 0.52 0.45 0.33 0.32 0.32 0.38 0.53 0.69 0.81 0.90 0.87 0.68 0.60 0.67 0.67 0.45 0.27 0.30 0.29 0.20 0.11 0.04 0.01 0.00 0.00 0.00 0.00 0.00 0.00 0.01 0.03 0.07 0.06 0.06 0.06 0.05 0.03 0.01 0.01 0.01 0.00 0.00
0.45 0.52 0.55 0.46 0.38 0.36 0.40 0.47 0.53 0.80 0.94 1.02 0.96 0.67 0.73 0.66 0.51 0.37 0.28 0.30 0.25 0.19 0.10 0.03 0.01 0.01 0.01 0.01 0.01 0.01 0.01 0.02 0.02 0.02 0.04 0.05 0.05 0.06 0.04 0.04 0.04 0.02 0.01
0.40 0.46 0.51 0.54 0.53 0.49 0.48 0.50 0.48 0.53 0.64 0.73 0.64 0.52 0.63 0.68 0.55 0.46 0.34 0.31 0.33 0.30 0.25 0.14 0.06 0.04 0.03 0.02 0.03 0.02 0.01 0.01 0.01 0.01 0.03 0.04 0.05 0.09 0.09 0.11 0.11 0.07 0.06
0.39 0.42 0.46 0.53 0.60 0.62 0.62 0.70 0.62 0.58 0.63 0.61 0.55 0.54 0.56 0.60 0.59 0.61 0.52 0.40 0.34 0.39 0.40 0.29 0.19 0.13 0.06 0.03 0.02 0.02 0.02 0.01 0.00 0.01 0.01 0.02 0.04 0.11 0.17 0.22 0.23 0.20 0.15
0.37 0.37 0.39 0.43 0.48 0.53 0.60 0.67 0.72 0.72 0.74 0.70 0.71 0.64 0.58 0.66 0.74 0.78 0.72 0.56 0.45 0.50 0.51 0.43 0.32 0.23 0.11 0.05 0.02 0.01 0.01 0.01 0.01 0.00 0.00 0.00 0.01 0.05 0.12 0.19 0.30 0.36 0.32
0.35 0.32 0.31 0.32 0.32 0.35 0.42 0.53 0.65 0.71 0.78 0.83 0.83 0.79 0.76 0.78 0.78 0.84 0.89 0.84 0.76 0.72 0.67 0.57 0.40 0.28 0.17 0.09 0.04 0.01 0.00 0.00 0.01 0.01 0.00 0.00 0.00 0.00 0.01 0.04 0.11 0.14 0.22
0.29 0.30 0.30 0.31 0.30 0.26 0.30 0.43 0.53 0.58 0.65 0.80 0.86 0.91 1.17 1.25 1.05 0.95 0.97 0.92 0.88 0.87 0.81 0.78 0.67 0.45 0.28 0.17 0.09 0.05 0.02 0.01 0.01 0.01 0.01 0.01 0.01 0.01 0.00 0.00 0.02 0.02 0.08
0.15 0.14 0.18 0.24 0.30 0.28 0.24 0.30 0.41 0.49 0.61 0.72 0.88 0.96 1.18 1.26 1.17 1.17 1.14 1.07 0.98 0.92 0.91 0.97 0.99 0.74 0.50 0.30 0.27 0.22 0.13 0.06 0.04 0.02 0.02 0.01 0.02 0.01 0.01 0.01 0.02 0.03 0.03
0.05 0.07 0.10 0.15 0.23 0.31 0.33 0.38 0.51 0.68 0.79 0.86 0.99 1.05 1.18 1.16 1.13 1.07 1.18 1.25 1.16 1.15 1.18 1.23 1.23 1.11 0.79 0.48 0.56 0.68 0.48 0.33 0.16 0.07 0.04 0.03 0.02 0.01 0.01 0.01 0.02 0.02 0.01
0.03 0.05 0.11 0.19 0.32 0.49 0.64 0.84 1.09 1.36 1.47 1.36 1.21 1.27 1.41 1.47 1.40 1.31 1.36 1.46 1.34 1.32 1.31 1.30 1.25 1.36 1.26 0.92 0.76 0.91 0.73 0.60 0.53 0.23 0.11 0.09 0.08 0.05 0.03 0.02 0.02 0.03 0.02
0.11 0.17 0.28 0.40 0.57 0.73 0.93 1.15 1.39 1.62 1.78 1.80 1.82 1.85 1.81 1.76 1.63 1.51 1.48 1.49 1.47 1.48 1.37 1.26 1.29 1.46 1.66 1.49 1.21 0.96 0.75 0.60 0.60 0.50 0.31 0.20 0.16 0.11 0.07 0.05 0.04 0.03 0.03
0.28 0.41 0.53 0.76 0.92 1.06 1.12 1.22 1.43 1.54 1.61 1.72 1.87 1.91 1.88 1.77 1.65 1.52 1.45 1.44 1.46 1.51 1.47 1.47 1.54 1.67 1.79 1.86 1.65 1.28 0.99 0.80 0.55 0.51 0.51 0.42 0.31 0.19 0.13 0.09 0.07 0.05 0.04
0.57 0.81 0.96 1.06 1.16 1.15 1.13 1.15 1.29 1.43 1.51 1.59 1.72 1.77 1.70 1.54 1.47 1.45 1.43 1.36 1.28 1.32 1.40 1.53 1.71 1.74 1.78 1.88 1.78 1.41 1.13 0.95 0.82 0.72 0.60 0.57 0.56 0.37 0.25 0.19 0.13 0.08 0.08

GEFSSE_prec_meanprecacc_054.txt.gz
Total_Precipitation_Accumulation
0.01 0.02 0.09 0.10 0.09 0.07 0.07 0.08 0.08 0.09 0.10 0.11 0.11 0.10 0.08 0.07 0.07 0.09 0.10 0.10 0.11 0.14 0.19 0.22 0.24 0.25 0.26 0.28 0.35 0.41 0.42 0.41 0.37 0.27 0.24 0.24 0.26 0.28 0.39 0.44 0.50 0.65 0.43
0.00 0.01 0.07 0.08 0.07 0.05 0.05 0.05 0.06 0.06 0.08 0.08 0.09 0.08 0.06 0.06 0.05 0.07 0.08 0.07 0.07 0.10 0.15 0.20 0.25 0.27 0.30 0.32 0.41 0.49 0.48 0.44 0.43 0.40 0.40 0.39 0.34 0.33 0.32 0.35 0.52 0.60 0.43
0.00 0.00 0.04 0.06 0.06 0.06 0.05 0.04 0.05 0.08 0.07 0.06 0.08 0.07 0.07 0.05 0.04 0.05 0.05 0.06 0.06 0.07 0.10 0.16 0.26 0.31 0.32 0.41 0.49 0.50 0.51 0.50 0.48 0.45 0.60 0.73 0.44 0.38 0.40 0.41 0.40 0.39 0.40
0.00 0.00 0.01 0.03 0.07 0.09 0.07 0.05 0.08 0.08 0.06 0.06 0.08 0.07 0.08 0.05 0.04 0.04 0.04 0.04 0.06 0.06 0.07 0.12 0.23 0.32 0.36 0.37 0.42 0.43 0.44 0.49 0.51 0.43 0.59 0.78 0.62 0.41 0.48 0.52 0.40 0.36 0.40
0.01 0.02 0.05 0.08 0.15 0.17 0.11 0.11 0.14 0.11 0.09 0.08 0.07 0.08 0.09 0.06 0.07 0.04 0.03 0.04 0.05 0.06 0.07 0.09 0.17 0.27 0.34 0.36 0.37 0.36 0.39 0.54 0.46 0.39 0.49 0.59 0.57 0.47 0.49 0.56 0.47 0.40 0.41
0.05 0.06 0.11 0.15 0.22 0.24 0.14 0.15 0.23 0.16 0.13 0.09 0.05 0.06 0.08 0.06 0.06 0.02 0.03 0.05 0.04 0.04 0.06 0.08 0.13 0.21 0.28 0.34 0.35 0.41 0.49 0.48 0.38 0.43 0.46 0.57 0.54 0.47 0.43 0.42 0.46 0.45 0.47
0.16 0.12 0.15 0.25 0.25 0.24 0.21 0.25 0.33 0.27 0.20 0.11 0.06 0.06 0.06 0.06 0.05 0.03 0.04 0.03 0.03 0.03 0.03 0.04 0.07 0.12 0.18 0.25 0.30 0.35 0.39 0.38 0.51 0.48 0.42 0.54 0.47 0.41 0.35 0.36 0.46 0.46 0.47
0.46 0.34 0.31 0.37 0.35 0.33 0.32 0.36 0.43 0.42 0.30 0.15 0.08 0.08 0.06 0.06 0.04 0.04 0.05 0.04 0.03 0.01 0.01 0.02 0.04 0.07 0.08 0.13 0.17 0.23 0.28 0.32 0.43 0.37 0.34 0.42 0.37 0.34 0.29 0.31 0.39 0.45 0.50
0.81 0.71 0.63 0.53 0.45 0.46 0.49 0.46 0.57 0.66 0.46 0.26 0.17 0.15 0.11 0.07 0.05 0.04 0.03 0.02 0.01 0.01 0.01 0.01 0.02 0.04 0.05 0.07 0.12 0.18 0.23 0.24 0.26 0.27 0.24 0.29 0.30 0.28 0.31 0.30 0.35 0.45 0.48
0.76 0.70 0.68 0.70 0.69 0.68 0.66 0.73 0.82 1.05 0.91 0.51 0.33 0.23 0.18 0.10 0.07 0.05 0.02 0.01 0.01 0.01 0.00 0.00 0.00 0.01 0.03 0.06 0.11 0.18 0.18 0.16 0.22 0.17 0.12 0.15 0.23 0.16 0.17 0.22 0.26 0.30 0.36
0.59 0.60 0.63 0.68 0.71 0.73 0.71 0.84 1.03 1.24 1.24 0.87 0.59 0.45 0.30 0.17 0.19 0.15 0.07 0.03 0.02 0.01 0.00 0.00 0.01 0.01 0.03 0.05 0.09 0.11 0.09 0.11 0.20 0.16 0.10 0.12 0.13 0.07 0.06 0.06 0.09 0.13 0.18
0.53 0.50 0.50 0.54 0.59 0.62 0.63 0.87 1.07 1.09 1.19 0.90 0.83 0.68 0.50 0.47 0.42 0.25 0.16 0.13 0.09 0.04 0.02 0.01 0.01 0.01 0.01 0.02 0.02 0.04 0.05 0.08 0.16 0.14 0.09 0.15 0.12 0.04 0.02 0.02 0.02 0.04 0.05
0.53 0.49 0.41 0.43 0.45 0.49 0.60 0.81 1.01 1.11 1.22 1.17 1.09 0.94 0.90 0.79 0.46 0.25 0.27 0.24 0.16 0.11 0.05 0.02 0.02 0.01 0.00 0.00 0.01 0.01 0.02 0.06 0.12 0.10 0.09 0.15 0.13 0.05 0.02 0.01 0.01 0.02 0.02
0.49 0.56 0.48 0.36 0.36 0.37 0.45 0.62 0.82 1.00 1.15 1.16 0.96 0.83 0.88 0.84 0.57 0.36 0.38 0.38 0.28 0.19 0.11 0.06 0.03 0.01 0.00 0.00 0.00 0.00 0.01 0.03 0.08 0.07 0.07 0.10 0.12 0.07 0.03 0.02 0.01 0.01 0.01
0.46 0.54 0.56 0.48 0.40 0.38 0.43 0.50 0.57 0.85 1.01 1.14 1.15 0.90 0.96 0.92 0.77 0.58 0.43 0.45 0.38 0.31 0.24 0.16 0.09 0.04 0.01 0.01 0.01 0.01 0.01 0.02 0.03 0.04 0.06 0.07 0.10 0.10 0.06 0.05 0.05 0.02 0.02
0.40 0.47 0.52 0.55 0.54 0.49 0.49 0.51 0.50 0.55 0.66 0.77 0.71 0.65 0.81 0.87 0.76 0.68 0.49 0.44 0.47 0.48 0.48 0.38 0.20 0.10 0.05 0.03 0.03 0.02 0.02 0.01 0.01 0.02 0.04 0.05 0.07 0.11 0.11 0.13 0.11 0.07 0.06
0.39 0.42 0.47 0.54 0.61 0.62 0.63 0.70 0.63 0.58 0.63 0.62 0.57 0.57 0.64 0.71 0.70 0.74 0.63 0.49 0.45 0.57 0.63 0.54 0.38 0.22 0.11 0.05 0.03 0.03 0.02 0.01 0.01 0.01 0.01 0.03 0.04 0.12 0.18 0.23 0.24 0.20 0.15
0.37 0.37 0.39 0.43 0.48 0.53 0.60 0.67 0.72 0.72 0.74 0.70 0.71 0.65 0.59 0.70 0.81 0.87 0.81 0.64 0.55 0.64 0.72 0.69 0.55 0.40 0.23 0.11 0.05 0.04 0.04 0.03 0.02 0.02 0.01 0.00 0.01 0.05 0.12 0.20 0.30 0.37 0.33
0.35 0.32 0.31 0.32 0.32 0.35 0.42 0.53 0.65 0.71 0.78 0.83 0.83 0.79 0.76 0.79 0.81 0.89 0.96 0.91 0.85 0.83 0.81 0.77 0.62 0.48 0.33 0.21 0.12 0.07 0.04 0.02 0.02 0.02 0.01 0.01 0.00 0.00 0.02 0.04 0.12 0.14 0.23
0.29 0.30 0.30 0.31 0.30 0.26 0.30 0.43 0.53 0.58 0.65 0.80 0.86 0.91 1.18 1.26 1.06 0.98 1.02 0.99 0.95 0.95 0.91 0.95 0.92 0.71 0.50 0.35 0.24 0.14 0.07 0.05 0.04 0.03 0.03 0.03 0.02 0.01 0.00 0.00 0.02 0.02 0.09
0.15 0.14 0.18 0.24 0.30 0.28 0.24 0.30 0.41 0.49 0.61 0.72 0.88 0.96 1.18 1.26 1.17 1.18 1.16 1.11 1.04 0.98 0.98 1.09 1.19 1.02 0.77 0.54 0.48 0.38 0.23 0.12 0.09 0.08 0.06 0.05 0.04 0.02 0.01 0.01 0.02 0.03 0.03
0.05 0.07 0.10 0.15 0.23 0.31 0.33 0.38 0.51 0.68 0.79 0.86 0.99 1.05 1.18 1.16 1.13 1.07 1.19 1.26 1.18 1.20 1.23 1.29 1.35 1.32 1.06 0.77 0.81 0.92 0.69 0.46 0.23 0.12 0.09 0.06 0.04 0.04 0.01 0.01 0.02 0.02 0.02
0.03 0.05 0.11 0.19 0.32 0.49 0.64 0.84 1.09 1.36 1.47 1.36 1.21 1.27 1.41 1.47 1.40 1.31 1.37 1.48 1.37 1.35 1.34 1.35 1.32 1.48 1.48 1.21 1.03 1.17 0.95 0.78 0.67 0.31 0.15 0.13 0.12 0.08 0.05 0.03 0.02 0.03 0.03
0.11 0.17 0.28 0.40 0.57 0.73 0.93 1.15 1.39 1.62 1.78 1.81 1.83 1.85 1.82 1.76 1.63 1.51 1.49 1.50 1.49 1.49 1.38 1.28 1.33 1.55 1.80 1.70 1.47 1.18 0.93 0.75 0.77 0.65 0.40 0.26 0.22 0.15 0.10 0.08 0.06 0.04 0.03
0.28 0.41 0.53 0.76 0.92 1.06 1.12 1.22 1.44 1.54 1.61 1.73 1.87 1.91 1.89 1.78 1.66 1.52 1.46 1.45 1.48 1.53 1.48 1.50 1.57 1.73 1.87 1.98 1.85 1.52 1.21 0.98 0.69 0.64 0.65 0.54 0.38 0.24 0.17 0.13 0.10 0.08 0.06
0.57 0.81 0.96 1.06 1.16 1.15 1.14 1.15 1.29 1.43 1.51 1.59 1.72 1.78 1.71 1.55 1.49 1.47 1.45 1.38 1.30 1.34 1.42 1.56 1.75 1.79 1.85 1.97 1.92 1.61 1.35 1.17 1.00 0.86 0.70 0.68 0.68 0.46 0.33 0.25 0.18 0.12 0.12

GEFSSE_prec_meanprecacc_060.txt.gz
Total_Precipitation_Accumulation
0.01 0.02 0.11 0.13 0.12 0.10 0.10 0.11 0.11 0.12 0.13 0.13 0.12 0.11 0.09 0.08 0.07 0.09 0.10 0.10 0.11 0.14 0.20 0.23 0.25 0.26 0.26 0.29 0.36 0.42 0.43 0.43 0.38 0.28 0.25 0.24 0.27 0.29 0.40 0.45 0.52 0.68 0.47
0.01 0.01 0.08 0.11 0.09 0.08 0.08 0.09 0.09 0.10 0.11 0.10 0.11 0.09 0.07 0.06 0.06 0.08 0.08 0.07 0.08 0.10 0.15 0.21 0.26 0.28 0.30 0.33 0.43 0.51 0.50 0.47 0.45 0.42 0.41 0.40 0.35 0.34 0.32 0.36 0.54 0.65 0.48
0.01 0.01 0.05 0.08 0.08 0.08 0.08 0.08 0.09 0.12 0.11 0.07 0.10 0.08 0.08 0.06 0.05 0.05 0.05 0.06 0.06 0.07 0.10 0.17 0.27 0.31 0.33 0.42 0.51 0.54 0.56 0.56 0.52 0.48 0.62 0.75 0.46 0.39 0.41 0.43 0.43 0.44 0.46
0.01 0.01 0.03 0.09 0.13 0.16 0.13 0.12 0.14 0.16 0.13 0.12 0.12 0.11 0.10 0.07 0.05 0.05 0.04 0.05 0.06 0.06 0.07 0.12 0.23 0.32 0.37 0.39 0.44 0.46 0.49 0.54 0.57 0.47 0.61 0.79 0.63 0.43 0.50 0.55 0.45 0.41 0.45
0.02 0.04 0.11 0.20 0.26 0.28 0.24 0.23 0.27 0.23 0.20 0.18 0.15 0.13 0.13 0.10 0.09 0.06 0.04 0.04 0.05 0.06 0.08 0.09 0.17 0.27 0.35 0.38 0.39 0.40 0.45 0.61 0.52 0.43 0.51 0.60 0.61 0.52 0.52 0.59 0.51 0.45 0.47
0.09 0.12 0.21 0.31 0.38 0.39 0.28 0.29 0.36 0.30 0.25 0.19 0.13 0.12 0.12 0.09 0.09 0.04 0.04 0.06 0.04 0.05 0.06 0.08 0.13 0.21 0.29 0.35 0.37 0.44 0.55 0.58 0.45 0.48 0.49 0.59 0.58 0.51 0.46 0.45 0.50 0.51 0.54
0.24 0.20 0.25 0.42 0.46 0.43 0.38 0.40 0.48 0.42 0.34 0.22 0.15 0.14 0.12 0.11 0.09 0.06 0.06 0.05 0.04 0.04 0.04 0.05 0.08 0.14 0.19 0.26 0.31 0.37 0.45 0.48 0.58 0.53 0.45 0.57 0.50 0.44 0.37 0.40 0.51 0.52 0.54
0.58 0.44 0.41 0.53 0.55 0.52 0.52 0.55 0.60 0.59 0.46 0.29 0.22 0.20 0.17 0.15 0.11 0.09 0.08 0.07 0.05 0.02 0.02 0.04 0.05 0.08 0.10 0.14 0.18 0.24 0.33 0.40 0.50 0.42 0.37 0.45 0.40 0.36 0.32 0.35 0.44 0.49 0.54
0.99 0.87 0.76 0.69 0.62 0.62 0.67 0.64 0.78 0.90 0.68 0.46 0.34 0.32 0.27 0.22 0.17 0.14 0.10 0.07 0.04 0.02 0.02 0.03 0.04 0.06 0.07 0.09 0.13 0.20 0.27 0.30 0.35 0.35 0.26 0.32 0.34 0.30 0.33 0.34 0.39 0.51 0.52
0.99 0.91 0.90 0.97 0.96 0.93 0.92 0.98 1.08 1.37 1.22 0.80 0.57 0.44 0.38 0.28 0.21 0.19 0.13 0.09 0.06 0.04 0.03 0.03 0.03 0.04 0.06 0.08 0.13 0.20 0.22 0.19 0.29 0.24 0.17 0.18 0.26 0.18 0.19 0.23 0.30 0.35 0.40
0.76 0.79 0.85 0.91 0.93 0.96 0.94 1.09 1.31 1.57 1.60 1.22 0.90 0.71 0.54 0.34 0.32 0.29 0.17 0.15 0.11 0.07 0.06 0.04 0.04 0.04 0.06 0.07 0.11 0.14 0.12 0.14 0.27 0.24 0.17 0.15 0.17 0.09 0.07 0.08 0.11 0.16 0.22
0.58 0.56 0.57 0.61 0.66 0.71 0.76 1.02 1.24 1.29 1.45 1.21 1.15 0.99 0.80 0.71 0.62 0.39 0.27 0.28 0.25 0.17 0.12 0.09 0.06 0.04 0.03 0.04 0.03 0.05 0.06 0.10 0.20 0.21 0.13 0.19 0.19 0.07 0.03 0.03 0.04 0.06 0.09
0.54 0.51 0.45 0.46 0.48 0.53 0.66 0.87 1.08 1.21 1.36 1.34 1.30 1.22 1.17 1.05 0.69 0.48 0.49 0.44 0.36 0.29 0.21 0.16 0.12 0.06 0.03 0.03 0.02 0.01 0.03 0.07 0.13 0.13 0.11 0.19 0.22 0.12 0.05 0.03 0.03 0.04 0.05
0.49 0.56 0.49 0.37 0.37 0.38 0.46 0.65 0.85 1.05 1.23 1.27 1.08 0.97 1.05 1.00 0.76 0.60 0.68 0.67 0.54 0.40 0.32 0.26 0.17 0.11 0.05 0.02 0.01 0.01 0.01 0.05 0.09 0.09 0.11 0.12 0.18 0.14 0.08 0.05 0.03 0.02 0.03
0.46 0.54 0.56 0.48 0.40 0.39 0.43 0.51 0.58 0.87 1.04 1.18 1.21 0.98 1.07 1.04 0.91 0.74 0.63 0.72 0.63 0.53 0.45 0.37 0.29 0.19 0.11 0.06 0.03 0.01 0.02 0.02 0.03 0.05 0.09 0.09 0.13 0.15 0.12 0.08 0.07 0.03 0.03
0.40 0.47 0.52 0.55 0.54 0.50 0.49 0.51 0.51 0.56 0.67 0.78 0.73 0.69 0.86 0.93 0.85 0.79 0.61 0.58 0.62 0.66 0.70 0.64 0.46 0.31 0.20 0.11 0.06 0.03 0.02 0.01 0.01 0.02 0.06 0.06 0.08 0.14 0.15 0.15 0.13 0.08 0.07
0.39 0.42 0.47 0.54 0.61 0.62 0.63 0.71 0.63 0.59 0.64 0.63 0.58 0.59 0.67 0.74 0.75 0.81 0.72 0.59 0.57 0.70 0.79 0.74 0.60 0.44 0.26 0.14 0.07 0.05 0.03 0.01 0.01 0.01 0.02 0.04 0.06 0.13 0.20 0.25 0.26 0.22 0.17
0.37 0.37 0.39 0.43 0.48 0.53 0.60 0.68 0.72 0.72 0.75 0.70 0.71 0.66 0.61 0.72 0.83 0.90 0.86 0.71 0.65 0.75 0.83 0.82 0.73 0.60 0.42 0.25 0.13 0.08 0.06 0.05 0.02 0.02 0.01 0.01 0.02 0.07 0.15 0.22 0.31 0.38 0.34
0.35 0.32 0.31 0.32 0.32 0.35 0.42 0.53 0.65 0.71 0.78 0.83 0.84 0.80 0.77 0.80 0.82 0.91 0.99 0.96 0.92 0.91 0.90 0.86 0.74 0.62 0.49 0.37 0.27 0.18 0.11 0.06 0.06 0.04 0.01 0.01 0.01 0.02 0.04 0.05 0.12 0.15 0.24
0.29 0.30 0.30 0.31 0.30 0.26 0.30 0.43 0.54 0.59 0.66 0.80 0.87 0.92 1.19 1.27 1.07 0.99 1.04 1.03 1.00 1.01 0.99 1.03 1.03 0.85 0.61 0.49 0.42 0.28 0.17 0.10 0.07 0.05 0.04 0.03 0.02 0.01 0.01 0.01 0.04 0.03 0.09
0.15 0.14 0.18 0.24 0.30 0.28 0.24 0.30 0.41 0.50 0.62 0.74 0.89 0.97 1.20 1.27 1.18 1.19 1.17 1.12 1.06 1.02 1.04 1.18 1.30 1.15 0.90 0.68 0.64 0.52 0.34 0.19 0.13 0.10 0.08 0.06 0.04 0.03 0.02 0.02 0.04 0.04 0.03
0.05 0.07 0.10 0.15 0.24 0.31 0.33 0.38 0.51 0.68 0.80 0.87 1.00 1.06 1.18 1.16 1.14 1.08 1.20 1.28 1.20 1.22 1.26 1.35 1.42 1.39 1.19 0.93 0.98 1.10 0.83 0.56 0.28 0.15 0.12 0.08 0.06 0.05 0.03 0.02 0.02 0.02 0.02
0.03 0.05 0.11 0.19 0.32 0.49 0.64 0.85 1.10 1.37 1.48 1.37 1.22 1.29 1.42 1.47 1.41 1.32 1.38 1.49 1.38 1.37 1.37 1.39 1.38 1.54 1.55 1.33 1.21 1.39 1.11 0.90 0.76 0.36 0.19 0.17 0.15 0.12 0.07 0.03 0.03 0.03 0.03
0.11 0.17 0.28 0.40 0.57 0.73 0.93 1.15 1.40 1.63 1.79 1.82 1.84 1.86 1.83 1.77 1.64 1.52 1.50 1.52 1.51 1.52 1.42 1.32 1.38 1.61 1.87 1.78 1.57 1.35 1.09 0.90 0.94 0.77 0.46 0.30 0.26 0.21 0.15 0.09 0.06 0.05 0.04
0.28 0.41 0.53 0.76 0.92 1.06 1.13 1.22 1.44 1.55 1.62 1.73 1.88 1.92 1.90 1.80 1.67 1.53 1.47 1.47 1.50 1.56 1.52 1.54 1.62 1.79 1.94 2.05 1.93 1.64 1.33 1.09 0.81 0.78 0.79 0.63 0.44 0.30 0.22 0.17 0.13 0.09 0.07
0.57 0.81 0.96 1.07 1.16 1.15 1.14 1.16 1.29 1.43 1.52 1.60 1.72 1.79 1.72 1.56 1.50 1.48 1.46 1.39 1.32 1.36 1.45 1.60 1.79 1.84 1.92 2.05 2.00 1.71 1.48 1.30 1.12 0.99 0.83 0.80 0.79 0.55 0.41 0.32 0.24 0.18 0.15

GEFSSE_prec_meanprecacc_066.txt.gz
Total_Precipitation_Accumulation
0.07 0.04 0.12 0.13 0.12 0.11 0.12 0.14 0.14 0.15 0.16 0.17 0.16 0.14 0.11 0.10 0.09 0.11 0.11 0.10 0.11 0.15 0.20 0.24 0.25 0.26 0.27 0.29 0.36 0.42 0.44 0.43 0.38 0.29 0.25 0.24 0.27 0.30 0.41 0.48 0.61 0.81 0.52
0.05 0.03 0.10 0.12 0.10 0.09 0.09 0.11 0.11 0.12 0.13 0.13 0.13 0.12 0.09 0.07 0.07 0.09 0.09 0.07 0.08 0.11 0.16 0.21 0.27 0.28 0.31 0.34 0.44 0.53 0.52 0.48 0.46 0.43 0.43 0.44 0.38 0.35 0.34 0.41 0.67 0.79 0.52
0.03 0.04 0.08 0.12 0.11 0.12 0.11 0.11 0.12 0.16 0.15 0.11 0.15 0.13 0.12 0.09 0.06 0.07 0.06 0.07 0.08 0.09 0.11 0.18 0.27 0.32 0.33 0.43 0.52 0.56 0.58 0.57 0.54 0.50 0.70 0.98 0.60 0.42 0.43 0.45 0.47 0.47 0.49
0.03 0.05 0.13 0.19 0.19 0.22 0.20 0.19 0.22 0.24 0.23 0.21 0.22 0.20 0.20 0.14 0.09 0.07 0.06 0.06 0.07 0.08 0.09 0.13 0.24 0.34 0.37 0.39 0.45 0.48 0.51 0.55 0.59 0.50 0.74 0.99 0.82 0.50 0.53 0.57 0.47 0.44 0.49
0.06 0.09 0.21 0.29 0.33 0.35 0.30 0.30 0.35 0.32 0.29 0.28 0.26 0.25 0.24 0.19 0.16 0.10 0.06 0.06 0.06 0.08 0.10 0.10 0.18 0.28 0.36 0.39 0.41 0.41 0.46 0.63 0.56 0.47 0.60 0.75 0.82 0.61 0.55 0.62 0.54 0.47 0.50
0.14 0.17 0.27 0.35 0.43 0.45 0.34 0.36 0.43 0.38 0.33 0.27 0.21 0.21 0.21 0.17 0.16 0.10 0.09 0.09 0.07 0.07 0.09 0.10 0.15 0.22 0.30 0.36 0.38 0.45 0.56 0.60 0.50 0.57 0.58 0.71 0.78 0.58 0.49 0.49 0.54 0.55 0.58
0.29 0.24 0.29 0.45 0.50 0.48 0.43 0.47 0.55 0.48 0.40 0.30 0.23 0.22 0.20 0.18 0.16 0.12 0.11 0.10 0.08 0.08 0.07 0.08 0.10 0.15 0.20 0.27 0.32 0.39 0.47 0.50 0.63 0.65 0.55 0.71 0.64 0.48 0.40 0.42 0.54 0.57 0.59
0.61 0.47 0.43 0.55 0.58 0.56 0.57 0.61 0.67 0.67 0.54 0.37 0.30 0.28 0.25 0.22 0.19 0.15 0.14 0.12 0.09 0.06 0.07 0.07 0.08 0.10 0.11 0.15 0.19 0.26 0.36 0.41 0.54 0.51 0.46 0.57 0.49 0.40 0.33 0.36 0.45 0.52 0.58
1.00 0.88 0.77 0.71 0.64 0.65 0.70 0.68 0.83 0.96 0.79 0.57 0.45 0.42 0.35 0.30 0.24 0.20 0.15 0.12 0.08 0.06 0.06 0.07 0.07 0.07 0.08 0.10 0.14 0.21 0.30 0.32 0.39 0.42 0.35 0.45 0.41 0.32 0.34 0.34 0.40 0.53 0.56
1.00 0.92 0.91 0.98 0.97 0.96 0.96 1.01 1.13 1.43 1.29 0.90 0.67 0.54 0.48 0.37 0.30 0.27 0.20 0.16 0.12 0.09 0.08 0.08 0.07 0.06 0.07 0.09 0.14 0.21 0.23 0.21 0.31 0.29 0.25 0.28 0.30 0.20 0.19 0.24 0.30 0.36 0.43
0.76 0.80 0.86 0.92 0.93 0.97 0.95 1.12 1.36 1.63 1.68 1.31 1.01 0.82 0.65 0.43 0.45 0.46 0.32 0.30 0.23 0.17 0.14 0.12 0.09 0.07 0.07 0.08 0.12 0.15 0.13 0.14 0.32 0.29 0.26 0.23 0.19 0.10 0.08 0.08 0.11 0.17 0.23
0.59 0.56 0.58 0.61 0.67 0.72 0.77 1.04 1.26 1.33 1.52 1.30 1.26 1.09 0.92 0.84 0.77 0.55 0.47 0.48 0.44 0.33 0.23 0.16 0.13 0.08 0.05 0.05 0.07 0.07 0.07 0.11 0.23 0.23 0.18 0.23 0.22 0.08 0.04 0.05 0.05 0.07 0.10
0.54 0.51 0.45 0.46 0.48 0.54 0.67 0.88 1.10 1.23 1.40 1.41 1.38 1.32 1.30 1.20 0.83 0.62 0.66 0.64 0.57 0.48 0.36 0.31 0.21 0.12 0.07 0.06 0.09 0.04 0.03 0.08 0.16 0.15 0.17 0.23 0.25 0.14 0.06 0.04 0.04 0.05 0.06
0.49 0.56 0.49 0.37 0.37 0.39 0.47 0.66 0.86 1.07 1.26 1.30 1.13 1.04 1.15 1.14 0.90 0.73 0.83 0.87 0.78 0.65 0.58 0.54 0.41 0.26 0.14 0.08 0.06 0.04 0.04 0.06 0.11 0.13 0.19 0.16 0.20 0.16 0.09 0.05 0.03 0.03 0.04
0.46 0.54 0.56 0.48 0.40 0.39 0.44 0.51 0.58 0.87 1.05 1.20 1.24 1.01 1.13 1.14 1.03 0.86 0.77 0.90 0.84 0.77 0.71 0.65 0.53 0.39 0.25 0.14 0.13 0.09 0.08 0.05 0.05 0.07 0.15 0.11 0.14 0.17 0.13 0.09 0.08 0.04 0.04
0.40 0.47 0.52 0.55 0.54 0.50 0.49 0.51 0.51 0.56 0.67 0.79 0.75 0.71 0.89 0.98 0.93 0.90 0.74 0.74 0.80 0.86 0.96 0.93 0.69 0.52 0.37 0.23 0.16 0.13 0.07 0.04 0.03 0.03 0.09 0.08 0.09 0.14 0.16 0.17 0.15 0.10 0.08
0.39 0.42 0.47 0.54 0.61 0.62 0.63 0.71 0.63 0.59 0.64 0.63 0.59 0.60 0.69 0.78 0.79 0.89 0.80 0.72 0.72 0.89 1.00 1.01 0.86 0.71 0.49 0.31 0.19 0.13 0.08 0.04 0.03 0.03 0.03 0.06 0.07 0.13 0.21 0.27 0.27 0.23 0.18
0.37 0.37 0.39 0.43 0.48 0.53 0.60 0.68 0.72 0.72 0.75 0.71 0.72 0.67 0.62 0.74 0.85 0.94 0.91 0.79 0.76 0.90 1.01 1.05 1.01 0.91 0.69 0.49 0.32 0.20 0.12 0.09 0.05 0.03 0.03 0.03 0.04 0.08 0.16 0.22 0.32 0.39 0.35
0.35 0.32 0.31 0.32 0.32 0.35 0.42 0.53 0.65 0.71 0.79 0.85 0.85 0.82 0.78 0.82 0.84 0.94 1.04 1.02 1.00 1.02 1.03 1.03 0.97 0.88 0.76 0.60 0.48 0.36 0.22 0.14 0.11 0.06 0.04 0.05 0.04 0.04 0.07 0.07 0.13 0.15 0.24
0.29 0.30 0.30 0.31 0.30 0.27 0.31 0.44 0.55 0.61 0.69 0.85 0.91 0.97 1.22 1.29 1.08 1.01 1.07 1.06 1.06 1.09 1.09 1.17 1.21 1.04 0.84 0.73 0.63 0.49 0.34 0.21 0.14 0.10 0.07 0.06 0.05 0.06 0.05 0.05 0.06 0.04 0.09
0.15 0.14 0.18 0.24 0.31 0.29 0.26 0.32 0.43 0.52 0.65 0.78 0.93 1.01 1.23 1.30 1.21 1.22 1.20 1.16 1.11 1.07 1.11 1.28 1.44 1.30 1.07 0.88 0.84 0.70 0.51 0.35 0.24 0.18 0.12 0.09 0.08 0.08 0.09 0.11 0.09 0.06 0.04
0.05 0.07 0.10 0.15 0.24 0.32 0.35 0.40 0.53 0.70 0.82 0.90 1.02 1.09 1.21 1.21 1.18 1.11 1.24 1.32 1.24 1.26 1.30 1.41 1.52 1.52 1.32 1.12 1.17 1.28 0.98 0.71 0.40 0.22 0.16 0.12 0.10 0.08 0.07 0.10 0.11 0.06 0.03
0.03 0.05 0.11 0.19 0.33 0.50 0.66 0.88 1.12 1.40 1.51 1.40 1.25 1.31 1.45 1.51 1.45 1.35 1.42 1.54 1.44 1.43 1.42 1.46 1.45 1.64 1.66 1.46 1.38 1.58 1.25 1.02 0.90 0.44 0.24 0.20 0.19 0.17 0.13 0.09 0.10 0.09 0.06
0.11 0.17 0.28 0.40 0.57 0.74 0.95 1.17 1.42 1.66 1.82 1.84 1.85 1.88 1.85 1.80 1.67 1.55 1.54 1.56 1.56 1.59 1.49 1.39 1.47 1.71 1.98 1.88 1.70 1.48 1.22 1.03 1.08 0.89 0.54 0.33 0.30 0.25 0.20 0.15 0.13 0.12 0.10
0.28 0.41 0.53 0.76 0.93 1.06 1.13 1.23 1.45 1.56 1.63 1.74 1.88 1.93 1.91 1.82 1.69 1.55 1.49 1.49 1.54 1.61 1.58 1.61 1.72 1.91 2.07 2.16 2.03 1.75 1.44 1.20 0.90 0.88 0.87 0.69 0.49 0.33 0.26 0.22 0.21 0.19 0.16
0.57 0.81 0.96 1.07 1.16 1.16 1.14 1.16 1.30 1.43 1.52 1.60 1.73 1.79 1.72 1.58 1.52 1.49 1.47 1.41 1.34 1.40 1.49 1.64 1.86 1.94 2.04 2.17 2.12 1.82 1.58 1.38 1.18 1.06 0.90 0.88 0.86 0.60 0.45 0.36 0.29 0.26 0.24

GEFSSE_prec_meanprecacc_072.txt.gz
Total_Precipitation_Accumulation
0.35 0.14 0.22 0.21 0.15 0.12 0.12 0.14 0.15 0.16 0.18 0.19 0.17 0.15 0.12 0.10 0.09 0.11 0.12 0.11 0.11 0.15 0.20 0.24 0.26 0.27 0.28 0.30 0.36 0.43 0.45 0.44 0.39 0.30 0.26 0.26 0.28 0.32 0.43 0.51 0.65 0.85 0.58
0.24 0.12 0.21 0.21 0.14 0.10 0.10 0.11 0.12 0.13 0.14 0.14 0.15 0.13 0.11 0.09 0.07 0.09 0.09 0.08 0.09 0.12 0.16 0.22 0.27 0.29 0.32 0.35 0.45 0.54 0.53 0.49 0.48 0.44 0.46 0.47 0.40 0.37 0.37 0.45 0.74 0.84 0.59
0.17 0.12 0.16 0.20 0.16 0.13 0.13 0.12 0.13 0.17 0.16 0.12 0.16 0.14 0.14 0.11 0.08 0.07 0.07 0.07 0.08 0.09 0.11 0.18 0.28 0.33 0.35 0.44 0.53 0.57 0.60 0.59 0.56 0.53 0.75 1.02 0.64 0.45 0.46 0.50 0.54 0.52 0.53
0.16 0.13 0.19 0.24 0.23 0.23 0.21 0.20 0.23 0.26 0.23 0.22 0.24 0.21 0.22 0.17 0.12 0.09 0.07 0.07 0.08 0.08 0.10 0.14 0.25 0.34 0.38 0.40 0.45 0.49 0.52 0.57 0.62 0.54 0.79 1.06 0.89 0.56 0.58 0.63 0.52 0.48 0.52
0.15 0.14 0.27 0.35 0.36 0.37 0.32 0.32 0.36 0.33 0.30 0.29 0.27 0.25 0.26 0.21 0.19 0.13 0.08 0.08 0.09 0.10 0.12 0.12 0.19 0.29 0.37 0.40 0.41 0.42 0.48 0.66 0.60 0.50 0.65 0.80 0.89 0.67 0.60 0.66 0.57 0.49 0.53
0.24 0.22 0.32 0.39 0.46 0.47 0.36 0.37 0.44 0.39 0.34 0.28 0.22 0.22 0.22 0.19 0.19 0.13 0.10 0.11 0.09 0.10 0.11 0.12 0.16 0.23 0.31 0.37 0.39 0.46 0.58 0.63 0.55 0.61 0.64 0.77 0.84 0.66 0.54 0.53 0.57 0.58 0.63
0.36 0.28 0.32 0.48 0.52 0.50 0.45 0.49 0.56 0.49 0.42 0.32 0.25 0.24 0.22 0.20 0.19 0.15 0.13 0.11 0.10 0.09 0.09 0.10 0.12 0.17 0.22 0.28 0.32 0.39 0.49 0.54 0.68 0.71 0.63 0.77 0.70 0.57 0.46 0.47 0.58 0.60 0.63
0.64 0.49 0.44 0.57 0.60 0.58 0.60 0.64 0.70 0.70 0.57 0.41 0.33 0.33 0.28 0.26 0.22 0.19 0.17 0.14 0.11 0.08 0.08 0.09 0.10 0.11 0.12 0.15 0.20 0.26 0.38 0.45 0.58 0.60 0.57 0.65 0.58 0.49 0.39 0.40 0.49 0.55 0.60
1.01 0.89 0.78 0.72 0.66 0.67 0.73 0.71 0.86 0.99 0.82 0.61 0.50 0.48 0.41 0.35 0.29 0.24 0.18 0.15 0.12 0.09 0.08 0.09 0.09 0.08 0.08 0.10 0.14 0.21 0.31 0.36 0.43 0.51 0.48 0.57 0.54 0.42 0.39 0.38 0.43 0.55 0.59
1.00 0.92 0.91 0.99 0.98 0.96 0.97 1.03 1.15 1.46 1.33 0.94 0.73 0.60 0.53 0.43 0.36 0.35 0.27 0.22 0.19 0.15 0.13 0.12 0.09 0.08 0.08 0.09 0.14 0.21 0.25 0.24 0.34 0.35 0.34 0.39 0.46 0.31 0.25 0.27 0.33 0.38 0.45
0.76 0.81 0.86 0.92 0.94 0.97 0.96 1.12 1.37 1.65 1.71 1.35 1.07 0.89 0.71 0.47 0.49 0.51 0.39 0.40 0.33 0.27 0.22 0.18 0.14 0.10 0.10 0.10 0.13 0.16 0.15 0.16 0.35 0.34 0.33 0.36 0.37 0.23 0.12 0.11 0.13 0.19 0.25
0.59 0.56 0.58 0.61 0.67 0.72 0.77 1.04 1.27 1.33 1.52 1.31 1.27 1.11 0.95 0.87 0.80 0.59 0.51 0.56 0.54 0.44 0.33 0.25 0.20 0.12 0.07 0.06 0.08 0.10 0.08 0.13 0.27 0.28 0.25 0.39 0.41 0.23 0.10 0.07 0.07 0.09 0.12
0.54 0.51 0.45 0.46 0.48 0.54 0.67 0.88 1.10 1.23 1.40 1.41 1.39 1.32 1.31 1.23 0.87 0.67 0.70 0.70 0.66 0.59 0.44 0.38 0.29 0.18 0.10 0.08 0.10 0.06 0.06 0.10 0.19 0.21 0.25 0.39 0.42 0.28 0.13 0.07 0.05 0.06 0.08
0.49 0.56 0.49 0.37 0.37 0.39 0.47 0.66 0.86 1.07 1.26 1.31 1.13 1.05 1.17 1.18 0.95 0.79 0.87 0.91 0.85 0.74 0.67 0.63 0.48 0.32 0.18 0.12 0.10 0.10 0.10 0.11 0.17 0.19 0.26 0.27 0.32 0.28 0.16 0.08 0.05 0.05 0.05
0.46 0.54 0.56 0.48 0.40 0.39 0.44 0.51 0.58 0.87 1.05 1.20 1.24 1.03 1.14 1.17 1.07 0.91 0.81 0.94 0.89 0.83 0.78 0.75 0.62 0.46 0.32 0.21 0.21 0.18 0.21 0.18 0.16 0.13 0.22 0.22 0.22 0.27 0.22 0.13 0.10 0.05 0.05
0.40 0.47 0.52 0.55 0.54 0.50 0.49 0.51 0.51 0.56 0.67 0.79 0.75 0.72 0.90 1.00 0.96 0.94 0.77 0.78 0.84 0.92 1.02 1.00 0.76 0.59 0.44 0.31 0.28 0.28 0.25 0.20 0.19 0.13 0.18 0.16 0.16 0.20 0.23 0.22 0.17 0.10 0.08
0.39 0.42 0.47 0.54 0.61 0.62 0.63 0.71 0.64 0.59 0.64 0.63 0.59 0.60 0.70 0.79 0.81 0.91 0.83 0.77 0.78 0.94 1.06 1.08 0.94 0.79 0.57 0.41 0.32 0.30 0.24 0.18 0.17 0.16 0.15 0.14 0.12 0.16 0.24 0.31 0.30 0.25 0.19
0.37 0.37 0.39 0.43 0.48 0.53 0.60 0.68 0.73 0.73 0.75 0.71 0.72 0.68 0.63 0.75 0.87 0.96 0.94 0.82 0.81 0.97 1.08 1.11 1.09 1.00 0.80 0.63 0.46 0.37 0.30 0.26 0.23 0.21 0.20 0.16 0.13 0.13 0.20 0.26 0.35 0.41 0.37
0.35 0.32 0.31 0.32 0.32 0.35 0.42 0.54 0.65 0.71 0.80 0.85 0.86 0.82 0.80 0.83 0.85 0.95 1.06 1.05 1.04 1.07 1.09 1.09 1.04 0.96 0.84 0.69 0.57 0.48 0.39 0.33 0.29 0.22 0.22 0.23 0.19 0.13 0.12 0.10 0.16 0.18 0.27
0.29 0.30 0.30 0.31 0.30 0.27 0.31 0.45 0.55 0.61 0.69 0.85 0.92 0.98 1.24 1.31 1.10 1.03 1.09 1.08 1.09 1.12 1.13 1.22 1.27 1.11 0.91 0.84 0.76 0.62 0.51 0.38 0.31 0.25 0.22 0.21 0.20 0.19 0.16 0.11 0.08 0.05 0.12
0.15 0.14 0.18 0.24 0.31 0.29 0.26 0.32 0.43 0.52 0.66 0.79 0.95 1.02 1.25 1.33 1.23 1.23 1.21 1.16 1.12 1.09 1.14 1.31 1.49 1.37 1.15 0.99 0.97 0.83 0.65 0.50 0.39 0.32 0.23 0.21 0.22 0.20 0.23 0.24 0.16 0.09 0.05
0.05 0.07 0.10 0.15 0.24 0.32 0.35 0.40 0.53 0.70 0.82 0.91 1.04 1.10 1.22 1.22 1.20 1.12 1.25 1.32 1.25 1.27 1.31 1.43 1.55 1.56 1.39 1.21 1.27 1.38 1.06 0.79 0.49 0.35 0.29 0.22 0.22 0.23 0.22 0.26 0.23 0.14 0.05
0.03 0.05 0.11 0.19 0.33 0.50 0.66 0.88 1.12 1.40 1.51 1.41 1.25 1.32 1.45 1.51 1.45 1.36 1.43 1.54 1.44 1.43 1.43 1.47 1.48 1.68 1.70 1.53 1.47 1.68 1.32 1.07 0.96 0.52 0.32 0.30 0.31 0.31 0.27 0.25 0.24 0.24 0.18
0.11 0.17 0.28 0.40 0.57 0.74 0.95 1.17 1.43 1.66 1.82 1.84 1.85 1.88 1.85 1.80 1.67 1.56 1.54 1.56 1.57 1.59 1.49 1.40 1.49 1.74 2.01 1.93 1.77 1.55 1.29 1.09 1.14 0.94 0.59 0.39 0.38 0.37 0.34 0.29 0.29 0.30 0.28
0.28 0.41 0.53 0.76 0.93 1.06 1.13 1.23 1.45 1.56 1.63 1.74 1.88 1.93 1.91 1.82 1.69 1.55 1.49 1.50 1.54 1.61 1.58 1.61 1.73 1.93 2.09 2.19 2.07 1.81 1.52 1.26 0.94 0.91 0.90 0.74 0.54 0.39 0.35 0.34 0.36 0.36 0.33
0.57 0.81 0.96 1.07 1.16 1.16 1.14 1.16 1.30 1.43 1.52 1.60 1.73 1.79 1.72 1.58 1.52 1.50 1.48 1.41 1.34 1.40 1.49 1.64 1.86 1.94 2.05 2.19 2.15 1.86 1.63 1.42 1.22 1.09 0.92 0.91 0.90 0.64 0.50 0.44 0.40 0.38 0.38